TVF31NY LFBO-DAOO

Flight info

Callsign TVF31NY
Flight time 1h 25m
Altitude 39000
Route GAUDE DCT ANETO DCT TURUV DCT GRAUS DCT LOBAR DCT SEROX DCT CASPE DCT MLA DCT CRETA DCT RIMES DCT SAURA DCT TATOS DCT PLANA DCT VLC DCT RIPUX DCT SUMMO DCT MAGAL DCT LIMTU DCT RINDI DCT HAMRA UA34 MOS
Aircraft B738/M-SDFGHIJ1RWXY/LB1

Departure

Time 2026-04-28 16:26
Airport Toulouse-Blagnac Airport (LFBO)

Arrival

Time 2026-04-28 17:51
Airport Oran Es-Sénia (Ahmed Ben Bella) International Airport (DAOO)
Time Latitude Longitude Altitude Speed Heading
2026-04-28 15:21 43.63191 1.36941 487 ft 0 kts 105°
2026-04-28 16:17 43.63199 1.36902 487 ft 4 kts 105°
2026-04-28 16:17 43.63204 1.36874 487 ft 4 kts 102°
2026-04-28 16:17 43.63208 1.36837 485 ft 4 kts 98°
2026-04-28 16:17 43.63216 1.36804 485 ft 4 kts 136°
2026-04-28 16:18 43.63232 1.36785 482 ft 3 kts 143°
2026-04-28 16:18 43.63234 1.36784 482 ft 1 kts 143°
2026-04-28 16:20 43.63225 1.36793 482 ft 4 kts 143°
2026-04-28 16:20 43.63186 1.36818 487 ft 8 kts 157°
2026-04-28 16:21 43.63126 1.36828 493 ft 9 kts 209°
2026-04-28 16:21 43.63075 1.36783 489 ft 9 kts 186°
2026-04-28 16:21 43.63019 1.36819 485 ft 9 kts 142°
2026-04-28 16:21 43.62960 1.36882 486 ft 12 kts 143°
2026-04-28 16:22 43.62886 1.36958 489 ft 14 kts 143°
2026-04-28 16:22 43.62802 1.37045 498 ft 16 kts 142°
2026-04-28 16:22 43.62710 1.37141 493 ft 17 kts 143°
2026-04-28 16:22 43.62610 1.37245 493 ft 19 kts 143°
2026-04-28 16:23 43.62503 1.37356 492 ft 20 kts 143°
2026-04-28 16:23 43.62390 1.37474 489 ft 21 kts 143°
2026-04-28 16:23 43.62274 1.37595 493 ft 21 kts 143°
2026-04-28 16:23 43.62157 1.37715 491 ft 21 kts 144°
2026-04-28 16:24 43.62044 1.37832 493 ft 20 kts 143°
2026-04-28 16:24 43.61935 1.37946 487 ft 19 kts 143°
2026-04-28 16:24 43.61830 1.38057 493 ft 19 kts 142°
2026-04-28 16:24 43.61727 1.38161 493 ft 18 kts 146°
2026-04-28 16:25 43.61628 1.38116 488 ft 17 kts 233°
2026-04-28 16:25 43.61598 1.37995 486 ft 13 kts 300°
2026-04-28 16:25 43.61695 1.37886 488 ft 34 kts 324°
2026-04-28 16:25 43.62092 1.37473 491 ft 107 kts 323°
2026-04-28 16:26 43.62849 1.36680 503 ft 163 kts 327°
2026-04-28 16:26 43.63747 1.35722 1184 ft 163 kts 326°
2026-04-28 16:26 43.64655 1.34738 1927 ft 167 kts 323°
2026-04-28 16:26 43.65580 1.33726 2707 ft 170 kts 325°
2026-04-28 16:27 43.66515 1.32708 3646 ft 173 kts 323°
2026-04-28 16:27 43.67521 1.31610 4410 ft 201 kts 323°
2026-04-28 16:27 43.69301 1.27982 5185 ft 273 kts 270°
2026-04-28 16:28 43.68829 1.25489 6186 ft 268 kts 238°
2026-04-28 16:28 43.68045 1.24155 6866 ft 265 kts 220°
2026-04-28 16:28 43.65807 1.22991 7988 ft 267 kts 179°
2026-04-28 16:28 43.63951 1.23284 8794 ft 272 kts 173°
2026-04-28 16:29 43.60235 1.23087 10387 ft 270 kts 210°
2026-04-28 16:29 43.57148 1.20132 11961 ft 273 kts 217°
2026-04-28 16:30 43.55623 1.18587 12719 ft 277 kts 217°
2026-04-28 16:30 43.54029 1.17082 13501 ft 279 kts 211°
2026-04-28 16:30 43.52321 1.15784 13881 ft 282 kts 208°
2026-04-28 16:30 43.50581 1.14546 13936 ft 282 kts 208°
2026-04-28 16:31 43.48837 1.13315 13946 ft 282 kts 208°
2026-04-28 16:31 43.47095 1.12076 13953 ft 282 kts 208°
2026-04-28 16:31 43.45358 1.10830 13951 ft 281 kts 208°
2026-04-28 16:31 43.43619 1.09574 14056 ft 284 kts 208°
2026-04-28 16:32 43.41853 1.08292 14657 ft 290 kts 208°
2026-04-28 16:32 43.38317 1.05715 16302 ft 292 kts 209°
2026-04-28 16:32 43.36458 1.04357 16561 ft 315 kts 209°
2026-04-28 16:33 43.34454 1.02891 16742 ft 338 kts 209°
2026-04-28 16:33 43.33745 1.02372 16801 ft 345 kts 209°
2026-04-28 16:33 43.30100 0.99710 17585 ft 364 kts 209°
2026-04-28 16:33 43.27859 0.98076 18343 ft 366 kts 209°
2026-04-28 16:34 43.25606 0.96433 19016 ft 368 kts 209°
2026-04-28 16:34 43.23337 0.94781 19687 ft 370 kts 209°
2026-04-28 16:34 43.21084 0.93140 20317 ft 373 kts 209°
2026-04-28 16:34 43.18782 0.91465 20955 ft 376 kts 209°
2026-04-28 16:35 43.16461 0.89778 21576 ft 379 kts 209°
2026-04-28 16:35 43.14122 0.88079 22185 ft 382 kts 209°
2026-04-28 16:35 43.11768 0.86370 22790 ft 385 kts 209°
2026-04-28 16:35 43.09392 0.84647 23384 ft 388 kts 209°
2026-04-28 16:36 43.06999 0.82913 23880 ft 391 kts 209°
2026-04-28 16:36 43.04587 0.81167 24343 ft 394 kts 209°
2026-04-28 16:36 43.02154 0.79406 24792 ft 397 kts 209°
2026-04-28 16:36 42.99729 0.77653 25137 ft 403 kts 209°
2026-04-28 16:37 42.97235 0.75852 25547 ft 407 kts 209°
2026-04-28 16:37 42.94727 0.74045 26015 ft 409 kts 209°
2026-04-28 16:37 42.92202 0.72227 26420 ft 412 kts 209°
2026-04-28 16:38 42.87102 0.68552 27360 ft 417 kts 209°
2026-04-28 16:38 42.84523 0.66699 27728 ft 421 kts 209°
2026-04-28 16:38 42.81924 0.64836 28114 ft 424 kts 209°
2026-04-28 16:38 42.79341 0.62985 28515 ft 426 kts 209°
2026-04-28 16:39 42.76706 0.61098 28902 ft 429 kts 209°
2026-04-28 16:39 42.74058 0.59207 29256 ft 431 kts 209°
2026-04-28 16:39 42.71391 0.57304 29578 ft 434 kts 208°
2026-04-28 16:39 42.68594 0.55691 29877 ft 440 kts 200°
2026-04-28 16:40 42.65611 0.54698 30192 ft 444 kts 192°
2026-04-28 16:40 42.62566 0.53957 30548 ft 445 kts 192°
2026-04-28 16:40 42.59515 0.53229 30894 ft 445 kts 192°
2026-04-28 16:40 42.56469 0.52491 31312 ft 444 kts 192°
2026-04-28 16:41 42.53484 0.51750 31799 ft 440 kts 193°
2026-04-28 16:41 42.50483 0.50991 32279 ft 438 kts 193°
2026-04-28 16:41 42.47494 0.50229 32701 ft 436 kts 193°
2026-04-28 16:41 42.44516 0.49467 33093 ft 435 kts 193°
2026-04-28 16:42 42.41544 0.48708 33524 ft 434 kts 193°
2026-04-28 16:42 42.38587 0.47955 33951 ft 431 kts 193°
2026-04-28 16:42 42.35645 0.47207 34307 ft 429 kts 193°
2026-04-28 16:42 42.32710 0.46458 34592 ft 430 kts 193°
2026-04-28 16:43 42.29813 0.45718 34884 ft 429 kts 193°
2026-04-28 16:43 42.26886 0.44970 35223 ft 427 kts 193°
2026-04-28 16:43 42.23970 0.44225 35570 ft 426 kts 193°
2026-04-28 16:43 42.21063 0.43484 35864 ft 425 kts 193°
2026-04-28 16:44 42.18154 0.42742 36111 ft 425 kts 193°
2026-04-28 16:44 42.15246 0.42002 36382 ft 425 kts 193°
2026-04-28 16:44 42.12345 0.41264 36697 ft 424 kts 193°
2026-04-28 16:44 42.09451 0.40529 36989 ft 423 kts 193°
2026-04-28 16:45 42.06602 0.39806 37259 ft 422 kts 193°
2026-04-28 16:45 42.03716 0.39074 37537 ft 422 kts 193°
2026-04-28 16:45 42.00837 0.38344 37805 ft 421 kts 193°
2026-04-28 16:45 41.97961 0.37616 38067 ft 420 kts 193°
2026-04-28 16:46 41.95086 0.36891 38300 ft 420 kts 193°
2026-04-28 16:46 41.92211 0.36168 38542 ft 420 kts 193°
2026-04-28 16:46 41.89342 0.35448 38744 ft 419 kts 193°
2026-04-28 16:46 41.86471 0.34727 38876 ft 420 kts 193°
2026-04-28 16:47 41.83588 0.34003 38901 ft 423 kts 193°
2026-04-28 16:47 41.77828 0.32559 38904 ft 423 kts 193°
2026-04-28 16:48 41.72058 0.31119 38906 ft 420 kts 192°
2026-04-28 16:48 41.66319 0.29697 38905 ft 419 kts 192°
2026-04-28 16:49 41.60603 0.28283 38903 ft 417 kts 192°
2026-04-28 16:49 41.54931 0.26882 38889 ft 417 kts 192°
2026-04-28 16:50 41.49231 0.25475 38897 ft 417 kts 192°
2026-04-28 16:50 41.43521 0.24068 38900 ft 418 kts 192°
2026-04-28 16:51 41.37791 0.22659 38899 ft 420 kts 192°
2026-04-28 16:51 41.32042 0.21235 38900 ft 421 kts 192°
2026-04-28 16:52 41.26316 0.19781 38902 ft 423 kts 192°
2026-04-28 16:52 41.20527 0.18349 38905 ft 424 kts 192°
2026-04-28 16:53 41.14716 0.16923 38907 ft 425 kts 192°
2026-04-28 16:53 41.08988 0.15046 38902 ft 424 kts 198°
2026-04-28 16:54 41.03394 0.12716 38905 ft 425 kts 199°
2026-04-28 16:54 40.97747 0.10405 38911 ft 425 kts 198°
2026-04-28 16:55 40.92091 0.08145 38915 ft 424 kts 198°
2026-04-28 16:55 40.87395 0.06279 38922 ft 424 kts 198°
2026-04-28 16:56 40.80847 0.03651 38927 ft 423 kts 198°
2026-04-28 16:56 40.75227 0.01387 38917 ft 422 kts 198°
2026-04-28 16:57 40.70568 -0.00486 38927 ft 420 kts 198°
2026-04-28 16:57 40.64977 -0.02728 38937 ft 419 kts 198°
2026-04-28 16:58 40.59396 -0.04962 38924 ft 419 kts 198°
2026-04-28 16:58 40.52919 -0.07542 38915 ft 418 kts 198°
2026-04-28 16:59 40.48252 -0.09385 38900 ft 418 kts 198°
2026-04-28 16:59 40.42714 -0.11567 38886 ft 418 kts 198°
2026-04-28 17:00 40.37133 -0.13766 38869 ft 419 kts 198°
2026-04-28 17:00 40.31547 -0.15964 38865 ft 420 kts 198°
2026-04-28 17:01 40.25947 -0.18162 38870 ft 420 kts 198°
2026-04-28 17:01 40.20379 -0.20359 38874 ft 421 kts 198°
2026-04-28 17:02 40.14762 -0.22581 38908 ft 422 kts 198°
2026-04-28 17:02 40.09130 -0.24805 38921 ft 424 kts 198°
2026-04-28 17:03 40.00654 -0.28142 38965 ft 425 kts 198°
2026-04-28 17:03 39.95017 -0.30326 38972 ft 426 kts 198°
2026-04-28 17:04 39.86487 -0.33609 38959 ft 427 kts 198°
2026-04-28 17:05 39.77958 -0.36932 38940 ft 427 kts 198°
2026-04-28 17:06 39.69468 -0.40231 38937 ft 426 kts 198°
2026-04-28 17:06 39.60939 -0.43535 38935 ft 427 kts 198°
2026-04-28 17:07 39.55254 -0.45732 38931 ft 426 kts 197°
2026-04-28 17:07 39.49514 -0.47656 38929 ft 427 kts 188°
2026-04-28 17:08 39.43617 -0.47541 38945 ft 429 kts 173°
2026-04-28 17:08 39.37704 -0.46389 38940 ft 430 kts 173°
2026-04-28 17:09 39.31782 -0.45269 38959 ft 430 kts 173°
2026-04-28 17:09 39.25847 -0.44204 38959 ft 431 kts 173°
2026-04-28 17:10 39.19945 -0.43147 38956 ft 431 kts 173°
2026-04-28 17:10 39.13995 -0.42075 38955 ft 432 kts 173°
2026-04-28 17:11 39.08040 -0.41004 38936 ft 433 kts 173°
2026-04-28 17:11 39.02073 -0.39934 38924 ft 433 kts 173°
2026-04-28 17:12 38.96142 -0.38872 38924 ft 433 kts 173°
2026-04-28 17:12 38.90169 -0.37804 38912 ft 434 kts 173°
2026-04-28 17:13 38.84185 -0.36736 38907 ft 434 kts 173°
2026-04-28 17:13 38.78197 -0.35669 38912 ft 435 kts 173°
2026-04-28 17:14 38.72244 -0.34610 38914 ft 435 kts 173°
2026-04-28 17:14 38.66239 -0.33544 38920 ft 436 kts 173°
2026-04-28 17:15 38.60230 -0.32478 38917 ft 436 kts 173°
2026-04-28 17:15 38.54215 -0.31414 38908 ft 437 kts 174°
2026-04-28 17:16 38.48236 -0.30357 38914 ft 437 kts 173°
2026-04-28 17:16 38.42209 -0.29294 38907 ft 437 kts 174°
2026-04-28 17:17 38.36187 -0.28234 38898 ft 437 kts 173°
2026-04-28 17:17 38.30166 -0.27165 38902 ft 437 kts 173°
2026-04-28 17:18 38.24192 -0.26099 38903 ft 436 kts 173°
2026-04-28 17:18 38.18180 -0.25030 38904 ft 436 kts 173°
2026-04-28 17:19 38.12172 -0.23964 38908 ft 436 kts 173°
2026-04-28 17:19 38.06167 -0.22901 38909 ft 436 kts 173°
2026-04-28 17:20 38.01177 -0.22019 38911 ft 436 kts 173°
2026-04-28 17:20 37.94195 -0.20796 38906 ft 436 kts 174°
2026-04-28 17:21 37.88191 -0.19753 38905 ft 436 kts 174°
2026-04-28 17:22 37.79182 -0.18187 38916 ft 436 kts 173°
2026-04-28 17:22 37.73175 -0.17145 38913 ft 436 kts 173°
2026-04-28 17:23 37.64191 -0.15595 38650 ft 441 kts 174°
2026-04-28 17:23 37.61146 -0.15072 38114 ft 441 kts 174°
2026-04-28 17:23 37.58117 -0.14550 37540 ft 438 kts 173°
2026-04-28 17:24 37.55103 -0.14030 36936 ft 437 kts 172°
2026-04-28 17:24 37.52096 -0.13511 36365 ft 435 kts 172°
2026-04-28 17:24 37.49114 -0.12996 35942 ft 430 kts 172°
2026-04-28 17:24 37.46162 -0.12488 35510 ft 426 kts 172°
2026-04-28 17:25 37.43281 -0.11993 35078 ft 422 kts 171°
2026-04-28 17:25 37.37511 -0.11004 34200 ft 415 kts 170°
2026-04-28 17:25 37.34657 -0.10513 33736 ft 413 kts 170°
2026-04-28 17:26 37.31819 -0.10026 33248 ft 410 kts 170°
2026-04-28 17:26 37.29004 -0.09545 32801 ft 407 kts 170°
2026-04-28 17:26 37.26212 -0.09067 32362 ft 403 kts 169°
2026-04-28 17:26 37.23482 -0.08600 31941 ft 400 kts 169°
2026-04-28 17:27 37.20732 -0.08128 31531 ft 397 kts 172°
2026-04-28 17:27 37.18008 -0.07663 31112 ft 393 kts 172°
2026-04-28 17:27 37.15304 -0.07203 30696 ft 391 kts 172°
2026-04-28 17:27 37.12615 -0.06744 30276 ft 388 kts 171°
2026-04-28 17:28 37.09946 -0.06290 29806 ft 387 kts 171°
2026-04-28 17:28 37.04643 -0.05385 28822 ft 381 kts 172°
2026-04-28 17:28 37.02033 -0.04940 28387 ft 376 kts 171°
2026-04-28 17:29 36.99488 -0.04507 27982 ft 372 kts 172°
2026-04-28 17:29 36.96934 -0.04072 27561 ft 369 kts 172°
2026-04-28 17:29 36.94404 -0.03641 27173 ft 365 kts 173°
2026-04-28 17:30 36.89424 -0.02795 26377 ft 358 kts 173°
2026-04-28 17:30 36.84529 -0.01975 25578 ft 352 kts 173°
2026-04-28 17:30 36.82109 -0.01581 25190 ft 350 kts 173°
2026-04-28 17:31 36.79704 -0.01193 24802 ft 347 kts 173°
2026-04-28 17:31 36.74971 -0.00428 24037 ft 343 kts 174°
2026-04-28 17:32 36.70261 0.00333 23235 ft 339 kts 174°
2026-04-28 17:32 36.67927 0.00710 22807 ft 337 kts 174°
2026-04-28 17:32 36.65611 0.01086 22408 ft 334 kts 174°
2026-04-28 17:32 36.63314 0.01457 22020 ft 331 kts 174°
2026-04-28 17:33 36.61038 0.01825 21647 ft 328 kts 174°
2026-04-28 17:33 36.58781 0.02190 21277 ft 326 kts 174°
2026-04-28 17:33 36.56545 0.02551 20914 ft 323 kts 174°
2026-04-28 17:33 36.55073 0.02788 20673 ft 321 kts 174°
2026-04-28 17:34 36.52149 0.03260 20199 ft 318 kts 174°
2026-04-28 17:34 36.49959 0.03613 19835 ft 316 kts 175°
2026-04-28 17:34 36.47780 0.03964 19490 ft 315 kts 174°
2026-04-28 17:34 36.45615 0.04312 19137 ft 313 kts 174°
2026-04-28 17:35 36.43459 0.04659 18785 ft 312 kts 174°
2026-04-28 17:35 36.41312 0.05004 18436 ft 311 kts 174°
2026-04-28 17:35 36.39172 0.05348 18081 ft 309 kts 174°
2026-04-28 17:35 36.37044 0.05690 17680 ft 308 kts 174°
2026-04-28 17:36 36.34948 0.06026 17312 ft 307 kts 174°
2026-04-28 17:36 36.32839 0.06365 16952 ft 305 kts 175°
2026-04-28 17:36 36.30744 0.06701 16610 ft 302 kts 175°
2026-04-28 17:36 36.28663 0.07037 16237 ft 301 kts 174°
2026-04-28 17:37 36.26586 0.07387 15857 ft 301 kts 174°
2026-04-28 17:37 36.24520 0.07740 15502 ft 299 kts 175°
2026-04-28 17:37 36.22462 0.08091 15157 ft 298 kts 175°
2026-04-28 17:37 36.20414 0.08441 14819 ft 296 kts 175°
2026-04-28 17:38 36.18405 0.08783 14490 ft 295 kts 175°
2026-04-28 17:38 36.16374 0.09119 14140 ft 293 kts 178°
2026-04-28 17:38 36.14364 0.08802 13386 ft 298 kts 205°
2026-04-28 17:38 36.12641 0.07285 12419 ft 313 kts 223°
2026-04-28 17:39 36.11005 0.05475 11818 ft 316 kts 221°
2026-04-28 17:39 36.09358 0.03686 11394 ft 314 kts 221°
2026-04-28 17:39 36.06092 0.00176 10535 ft 309 kts 220°
2026-04-28 17:40 36.04494 -0.01533 10228 ft 304 kts 220°
2026-04-28 17:40 36.02931 -0.03201 10164 ft 291 kts 220°
2026-04-28 17:40 36.01440 -0.04790 10059 ft 275 kts 220°
2026-04-28 17:40 36.00029 -0.06293 9903 ft 261 kts 220°
2026-04-28 17:41 35.98670 -0.07738 9532 ft 256 kts 220°
2026-04-28 17:41 35.97308 -0.09183 8910 ft 261 kts 219°
2026-04-28 17:41 35.95921 -0.10663 8494 ft 264 kts 220°
2026-04-28 17:41 35.94539 -0.12154 8174 ft 263 kts 220°
2026-04-28 17:42 35.93161 -0.13642 7804 ft 264 kts 220°
2026-04-28 17:42 35.92232 -0.14632 7485 ft 268 kts 220°
2026-04-28 17:42 35.90351 -0.16601 7118 ft 265 kts 219°
2026-04-28 17:42 35.88950 -0.18055 6947 ft 264 kts 219°
2026-04-28 17:43 35.87534 -0.19539 6672 ft 268 kts 219°
2026-04-28 17:43 35.86122 -0.21035 6327 ft 268 kts 219°
2026-04-28 17:43 35.84716 -0.22538 6034 ft 266 kts 219°
2026-04-28 17:43 35.83312 -0.24020 5697 ft 266 kts 219°
2026-04-28 17:44 35.81916 -0.25493 5481 ft 261 kts 219°
2026-04-28 17:44 35.80567 -0.26922 5247 ft 258 kts 219°
2026-04-28 17:44 35.79210 -0.28364 4952 ft 258 kts 219°
2026-04-28 17:44 35.77876 -0.29783 4875 ft 248 kts 220°
2026-04-28 17:45 35.76587 -0.31145 4790 ft 240 kts 219°
2026-04-28 17:45 35.75324 -0.32464 4584 ft 237 kts 219°
2026-04-28 17:45 35.74090 -0.33752 4471 ft 229 kts 219°
2026-04-28 17:45 35.72872 -0.35025 4208 ft 230 kts 219°
2026-04-28 17:46 35.71669 -0.36294 4047 ft 225 kts 219°
2026-04-28 17:46 35.70666 -0.37688 3908 ft 220 kts 244°
2026-04-28 17:46 35.70120 -0.39401 3787 ft 213 kts 247°
2026-04-28 17:46 35.69563 -0.41065 3613 ft 209 kts 245°
2026-04-28 17:47 35.68996 -0.42708 3357 ft 207 kts 246°
2026-04-28 17:47 35.68459 -0.44298 3158 ft 196 kts 246°
2026-04-28 17:47 35.67939 -0.45812 2864 ft 188 kts 246°
2026-04-28 17:47 35.67604 -0.46780 2674 ft 182 kts 247°
2026-04-28 17:48 35.66970 -0.48644 2353 ft 172 kts 247°
2026-04-28 17:48 35.66520 -0.49973 2146 ft 167 kts 248°
2026-04-28 17:48 35.66070 -0.51271 1863 ft 162 kts 249°
2026-04-28 17:48 35.65650 -0.52511 1656 ft 151 kts 250°
2026-04-28 17:49 35.65260 -0.53660 1525 ft 145 kts 249°
2026-04-28 17:49 35.64870 -0.54795 1301 ft 143 kts 250°
2026-04-28 17:49 35.64483 -0.55921 1167 ft 144 kts 252°
2026-04-28 17:49 35.64100 -0.57056 961 ft 143 kts 251°
2026-04-28 17:50 35.63717 -0.58185 765 ft 146 kts 250°
2026-04-28 17:50 35.63320 -0.59342 578 ft 145 kts 252°
2026-04-28 17:50 35.62944 -0.60458 380 ft 143 kts 252°
2026-04-28 17:50 35.62579 -0.61538 310 ft 125 kts 248°
2026-04-28 17:51 35.62302 -0.62347 308 ft 70 kts 247°
2026-04-28 17:51 35.62164 -0.62749 310 ft 34 kts 247°
2026-04-28 17:51 35.62090 -0.62952 308 ft 16 kts 234°
2026-04-28 17:51 35.61991 -0.62983 308 ft 16 kts 161°
2026-04-28 17:52 35.61893 -0.62934 308 ft 15 kts 156°
2026-04-28 17:52 35.61795 -0.62884 307 ft 15 kts 157°
2026-04-28 17:52 35.61630 -0.62757 309 ft 15 kts 118°
2026-04-28 17:53 35.61626 -0.62614 309 ft 20 kts 71°
2026-04-28 17:53 35.61682 -0.62445 309 ft 22 kts 67°
2026-04-28 17:53 35.61741 -0.62274 309 ft 21 kts 67°
2026-04-28 17:53 35.61797 -0.62108 309 ft 21 kts 66°
2026-04-28 17:54 35.61853 -0.61947 309 ft 20 kts 67°
2026-04-28 17:54 35.61906 -0.61790 308 ft 20 kts 67°
2026-04-28 17:54 35.61957 -0.61639 309 ft 19 kts 67°
2026-04-28 17:54 35.62007 -0.61495 309 ft 17 kts 67°
2026-04-28 17:55 35.62011 -0.61387 308 ft 13 kts 137°
2026-04-28 17:55 35.61938 -0.61341 308 ft 9 kts 145°
2026-04-28 17:55 35.61934 -0.61281 309 ft 7 kts 56°
2026-04-28 17:55 35.61938 -0.61232 309 ft 6 kts 123°
2026-04-28 17:56 35.61909 -0.61193 309 ft 6 kts 133°
2026-04-28 17:56 35.61901 -0.61183 309 ft 0 kts 133°